Regional Weather Roundup
Issued by NWS Kansas City/Pleasant Hill, MO

Home | Current Version | Previous Version | Text Only | Print | Product List | Glossary On
Versions: 1 2 3 4 5 6 7 8 9 10 11 12 13 14 15 16 17 18 19 20 21 22 23 24 25 26 27 28
000
ASUS43 KEAX 311610
RWREAX

WEATHER ROUNDUP FOR EASTERN KANSAS AND NORTHWEST MISSOURI
NATIONAL WEATHER SERVICE KANSAS CITY/PLEASANT HILL MO
1100 AM CDT TUE MAY 31 2016

KSZ040-057-103>105-MOZ028-029-037-043-311700-
...KANSAS CITY METROPOLITAN AREA...

CITY           SKY/WX    TMP DP  RH WIND       PRES   REMARKS
K.C. INTL      CLOUDY    69  63  81 SW6       29.97S
K.C. DOWNTOWN  CLOUDY    71  63  75 SW6       29.96S
LEES SUMMIT    CLOUDY    69  63  81 SW8       29.97R
OLATHE - IXD   CLOUDY    70  63  78 CALM      29.97S
OLATHE - OJC   CLOUDY    69  63  81 CALM      29.97S
LAWRENCE       CLOUDY    69  63  81 S5        29.96F

$$

MOZ001>008-011>017-020>025-030>033-038>040-044>046-053-054-311700-
...NORTHERN AND CENTRAL MISSOURI...

CITY           SKY/WX    TMP DP  RH WIND       PRES   REMARKS
ST. JOSEPH     CLOUDY    71  63  75 S8        29.96R
MOSBY          CLOUDY    70  63  78 SW7       29.96S
WARRENSBURG    CLOUDY    72  64  78 S7        29.95F
WHITEMAN AFB   PTSUNNY   73  69  87 SW9       29.95F
CLINTON        CLOUDY    72  66  83 SE5       29.96F
SEDALIA        CLOUDY    77  65  66 S10       29.97R
WARSAW         NOT AVBL
CHILLICOTHE      N/A     73  63  70 S10G16    29.96R
KIRKSVILLE     MOSUNNY   74  64  71 SE9       29.96F

$$

MOZ041-047>049-056>058-063>065-088>090-097-311700-
...EASTERN AND SOUTHERN MISSOURI...

CITY           SKY/WX    TMP DP  RH WIND       PRES   REMARKS
ST. LOUIS INTL CLOUDY    74  62  66 E9        30.00R
SPIRIT OF STL  CLOUDY    73  67  81 E5        29.98S
COLUMBIA       CLOUDY    76  63  64 SE10      29.97F
JEFFERSON CITY CLOUDY    75  61  61 SE8       29.96F
ROLLA          PTSUNNY   75  63  66 SE14      29.99S
SPRINGFIELD    CLOUDY    73  63  70 S6        29.98S
BRANSON        CLOUDY    72  64  78 E9        30.00F
JOPLIN         CLOUDY    73  67  81 SW9       29.98S
WEST PLAINS    CLOUDY    70  63  78 CALM      30.03S

$$

IAZ060-094-KSZ022-034>040-054-083-096-NEZ052-066-093-311700-
...KANSAS...SOUTHEAST NEBRASKA AND IOWA...

CITY           SKY/WX    TMP DP  RH WIND       PRES   REMARKS
TOPEKA         CLOUDY    72  62  71 CALM      29.95F
MANHATTAN      CLOUDY    70  59  68 VRB3      29.96S
EMPORIA        CLOUDY    66  63  90 NW7       29.96S
CHANUTE        CLOUDY    71  65  81 SW13      29.96S
WICHITA        CLOUDY    70  61  73 CALM      29.93F
OMAHA          CLOUDY    67  60  78 NW14      29.93S
LINCOLN        PTSUNNY   69  58  67 N15       29.97R
FALLS CITY     LGT RAIN  75  62  64 W8        29.93S
LAMONI         CLOUDY    73  61  65 S13       29.94S
DES MOINES     CLOUDY    76  61  59 S13       29.92S

$$





USA.gov is the U.S. government's official web portal to all federal, state and local government web resources and services.